SCP
3 4 5 5 5 4 4 4 4 3 3 2 2 2 2 2 2 2 2 2 2 2 2 2 2 2 2 2 2 2 2 1 1 1 1 1 1 1 1 1 1 0 0
5 6 7 7 6 5 4 4 4 4 3 3 2 2 2 2 2 2 2 2 2 2 2 2 2 2 2 2 2 2 2 2 1 1 1 1 1 1 1 1 1 1 0
9 9 9 9 8 7 6 6 5 5 4 4 3 3 2 2 3 3 3 3 3 2 3 3 3 2 2 2 2 2 2 2 2 1 1 1 1 1 1 1 1 1 1
12 12 11 10 9 8 8 7 6 6 5 4 3 3 3 3 3 3 4 4 3 3 3 3 4 3 3 2 2 2 2 2 2 1 1 1 1 1 1 1 1 1 1
13 12 11 10 10 9 9 8 7 7 6 5 4 3 3 3 3 3 3 3 3 3 3 3 4 3 3 3 3 2 2 2 2 2 1 1 1 1 1 1 1 1 1
12 11 10 10 9 9 9 8 8 7 7 6 5 4 4 3 3 3 3 3 3 3 3 3 3 3 3 3 3 3 2 2 2 2 2 1 1 1 1 1 1 1 1
11 10 9 9 9 8 8 8 8 7 7 7 6 5 4 3 2 3 3 3 3 3 3 3 3 3 3 3 3 2 2 2 2 2 2 2 2 1 1 1 1 1 1
11 10 9 8 8 8 8 8 7 7 7 7 7 5 4 3 2 2 3 3 3 3 3 2 3 3 3 3 3 2 2 2 2 2 2 2 2 2 2 1 1 1 1
10 9 8 8 8 8 8 7 6 6 6 7 7 5 4 3 2 2 3 3 4 4 3 2 2 3 3 4 3 2 2 2 2 2 2 2 2 2 2 2 1 1 1
8 8 7 7 7 7 7 6 6 6 6 6 6 7 7 5 2 2 2 3 3 3 3 2 2 2 3 3 3 2 1 1 2 2 2 2 2 2 2 2 2 2 1
7 7 7 7 7 7 7 6 5 5 5 4 4 7 10 6 2 2 2 2 2 2 2 2 2 2 2 2 2 1 1 1 1 1 2 2 2 2 2 2 2 2 2
6 6 6 6 6 6 5 4 3 3 3 3 2 4 5 4 2 1 1 1 1 1 2 2 2 2 2 1 1 1 0 0 0 1 1 1 1 2 2 2 2 2 2
6 6 5 5 5 4 4 3 2 2 1 1 1 1 1 1 1 1 1 1 1 1 1 1 1 1 1 1 1 0 0 0 0 0 0 1 1 1 1 1 2 2 2
4 4 4 4 3 3 2 2 1 1 1 1 1 1 1 1 1 1 1 1 1 1 1 1 1 1 1 1 0 0 0 0 0 0 0 0 0 0 1 1 1 1 1
3 3 3 3 2 2 1 1 1 1 1 0 0 0 0 1 1 1 0 0 0 0 1 1 0 0 1 1 0 0 0 0 0 0 0 0 0 0 0 0 0 0 0
2 3 3 2 2 1 1 1 1 1 1 1 1 1 0 0 0 0 0 0 0 0 1 1 1 0 0 0 0 0 0 0 0 0 0 0 0 0 0 0 0 0 0
1 2 2 1 1 1 1 1 1 1 1 1 1 1 0 0 0 1 0 0 0 1 1 1 1 0 0 0 0 0 0 0 0 0 0 0 0 0 0 0 0 0 0
1 1 1 1 1 1 1 1 1 1 1 1 1 0 0 0 1 1 1 1 0 0 1 1 1 0 0 0 0 0 0 0 0 0 0 0 0 0 0 0 0 0 0
0 0 0 0 0 0 0 1 1 1 1 1 0 0 0 0 0 0 1 0 0 0 0 0 0 0 0 0 0 0 1 1 0 0 0 0 0 0 0 0 0 0 0
0 0 0 0 0 0 0 0 0 0 0 0 0 0 0 0 0 0 0 0 0 0 0 0 0 0 0 0 0 0 0 0 0 0 0 0 0 0 0 0 0 0 0
0 0 0 0 0 0 0 0 0 0 0 0 0 0 0 0 0 0 0 0 0 0 0 0 0 0 0 0 0 0 0 0 0 0 0 0 0 0 0 0 0 0 0
0 0 0 0 0 0 0 0 0 0 0 0 0 0 0 0 0 0 0 0 0 0 0 0 0 0 0 0 0 0 0 0 0 0 0 0 0 0 0 0 0 0 0
0 0 0 0 0 0 0 0 0 0 0 0 0 0 0 0 0 0 0 0 0 0 0 0 0 0 0 0 0 0 0 0 0 0 0 0 0 0 0 0 0 0 0
0 0 0 0 0 0 0 0 0 0 0 0 0 0 0 0 0 0 0 0 0 0 0 0 0 0 0 0 0 0 0 0 0 0 0 0 0 0 0 0 0 0 0
0 0 0 0 0 0 0 0 0 0 0 0 0 0 0 0 0 0 0 0 0 0 0 0 0 0 0 0 0 0 0 0 0 0 0 0 0 0 0 0 0 0 0
0 0 0 0 0 0 0 0 0 0 0 0 0 0 0 0 0 0 0 0 0 0 0 0 0 0 0 0 0 0 0 0 0 0 0 0 0 0 0 0 0 0 0
Wind_Speed
8 7 4 4 5 4 7 7 6 6 6 6 6 7 7 8 7 6 4 14 16 17 17 17 17 17 17 17 17 18 17 16 14 14 14 15 16 16 16 16 15 14 14
6 5 5 4 4 4 4 5 6 5 5 5 6 7 6 7 6 6 5 9 17 18 18 18 18 18 18 18 18 17 17 16 15 14 14 15 15 15 15 15 15 15 14
6 5 4 4 4 5 5 3 5 4 5 5 6 7 7 7 7 6 7 6 8 16 19 20 20 19 19 19 19 18 17 16 15 15 15 15 15 15 15 15 14 15 15
8 6 5 5 5 3 3 2 2 2 3 3 3 4 4 4 7 7 7 8 7 9 14 21 21 20 20 21 20 19 18 17 16 16 16 16 16 15 14 14 14 14 15
8 6 5 5 5 3 3 4 3 2 2 3 4 4 5 6 7 10 9 10 10 9 8 14 22 22 23 23 22 20 19 18 17 16 16 16 16 16 15 15 15 14 15
6 6 5 5 5 5 4 4 4 3 3 4 6 6 5 7 8 9 10 10 9 10 10 10 11 16 22 21 21 21 20 19 18 18 18 18 17 17 16 16 15 15 15
6 5 6 5 5 6 6 6 5 6 5 4 3 3 6 10 11 10 9 9 9 9 8 7 7 8 10 21 21 20 21 20 19 19 19 19 18 18 17 17 16 16 16
7 7 7 6 6 6 7 7 6 5 5 5 4 2 3 6 10 12 8 8 7 5 5 7 6 8 8 8 13 20 20 20 20 19 19 18 18 18 18 18 18 17 17
8 8 8 7 7 7 7 7 8 9 7 5 5 4 3 4 4 5 4 3 3 3 3 4 4 4 6 6 8 16 20 20 21 20 18 17 17 17 18 18 19 18 18
9 9 9 8 7 7 7 8 8 7 7 5 3 3 4 4 3 4 4 3 3 2 3 3 4 4 3 3 5 10 16 18 18 18 17 16 16 17 18 19 20 20 19
8 8 8 6 7 6 7 7 6 5 4 4 3 2 3 5 6 5 5 4 3 3 3 3 3 3 3 2 1 2 7 13 15 15 14 12 13 14 16 18 20 21 21
6 8 7 6 6 5 6 5 4 4 3 2 2 2 2 3 3 4 4 3 4 3 3 1 1 1 2 4 8 9 3 4 7 8 8 9 9 9 11 14 17 20 22
6 6 7 6 6 5 5 4 3 3 3 3 3 2 3 4 3 3 3 3 3 3 2 0 0 1 3 3 4 5 1 2 5 6 7 7 7 7 7 8 11 14 16
6 6 7 7 7 6 5 4 3 3 3 3 4 4 3 3 3 3 2 1 2 2 1 1 1 3 2 2 3 3 1 2 4 5 6 6 6 7 7 7 8 9 10
4 4 5 6 6 6 5 4 3 4 4 4 5 5 3 2 2 1 1 1 1 2 2 3 3 3 3 2 1 2 1 2 5 5 5 6 6 6 7 7 8 9 11
5 3 1 2 3 3 3 3 4 4 5 4 4 3 2 1 0 1 1 1 0 1 1 2 3 4 4 4 2 3 2 3 6 7 6 6 6 6 6 7 8 10 12
8 7 5 2 2 3 4 4 5 5 6 5 4 5 4 4 3 3 2 2 2 2 2 2 2 3 3 4 4 4 3 3 3 7 8 7 6 6 6 7 8 10 12
7 7 6 4 1 1 2 3 5 5 6 6 6 6 5 5 5 4 3 4 3 3 2 2 2 2 3 3 4 4 4 4 2 4 7 6 5 5 6 7 8 10 11
6 6 6 5 3 4 4 5 6 7 8 8 7 7 7 7 6 4 5 5 4 3 2 2 2 2 3 4 4 4 5 5 5 3 3 4 4 5 7 8 8 10 11
3 4 4 4 4 5 5 7 8 9 9 9 9 9 8 6 5 5 6 6 5 4 4 3 4 5 5 7 5 5 4 4 5 7 5 3 2 3 6 7 8 9 11
1 1 3 4 4 6 6 6 7 9 8 8 8 7 7 8 9 7 6 6 7 7 6 5 6 5 5 6 6 5 4 3 2 4 4 4 4 3 4 5 6 8 10
1 2 3 4 6 7 11 12 8 7 7 7 6 6 8 8 6 6 8 9 8 7 6 5 5 5 5 5 5 6 4 4 3 3 3 3 4 4 4 5 8 8 9
2 3 6 7 7 8 13 12 10 7 8 8 8 8 8 10 9 6 1 3 5 8 8 5 5 4 4 5 6 7 5 3 2 2 2 2 3 4 4 5 10 9 9
3 4 6 7 6 7 11 12 9 7 6 6 7 8 8 8 10 10 7 8 6 5 5 4 2 3 3 4 5 6 5 2 1 2 2 2 2 2 3 3 9 10 9
4 4 6 6 6 4 8 11 10 3 5 8 9 9 8 7 12 13 8 7 7 6 3 4 4 6 6 6 5 5 7 6 4 3 5 3 2 1 1 3 5 8 10
4 4 5 6 5 4 5 8 9 2 3 6 7 8 10 8 9 10 6 6 6 6 8 8 4 2 3 5 7 5 5 6 5 4 6 5 4 3 2 1 2 3 4
Wind_Direction
212 226 217 199 208 216 202 209 216 216 221 237 240 242 240 238 238 234 207 195 199 206 212 217 220 225 229 231 231 232 232 232 230 224 219 219 221 223 224 225 225 224 222
210 212 205 199 209 228 247 207 211 217 221 228 243 250 249 249 239 230 231 210 211 212 215 220 223 225 227 228 229 228 228 228 224 217 216 218 218 220 221 222 222 223 222
213 212 215 210 212 217 227 224 226 224 228 231 233 244 248 243 244 233 229 234 225 220 220 221 222 223 225 228 229 228 226 225 219 213 214 216 217 218 218 218 218 218 217
211 215 219 217 206 198 202 209 223 244 258 262 255 256 265 260 246 240 235 232 235 238 223 222 223 222 224 227 229 229 225 222 217 213 213 214 215 217 217 216 215 215 213
212 215 229 228 220 214 205 217 203 205 246 269 274 261 252 258 259 253 245 241 235 230 226 214 217 219 222 225 227 227 225 222 217 214 214 213 214 215 215 214 213 212 212
221 218 227 229 237 243 226 211 213 216 219 232 259 273 287 273 256 246 243 245 242 237 233 224 210 220 221 223 223 223 224 223 219 215 214 215 214 214 214 213 211 211 212
248 229 246 238 225 239 239 223 214 222 223 217 230 264 273 271 259 247 236 235 238 238 236 228 200 209 214 221 222 221 221 224 221 217 215 214 214 213 213 213 211 210 210
255 247 237 246 242 243 242 232 223 225 225 210 199 216 261 270 263 254 230 220 228 234 243 250 226 210 208 199 215 219 223 225 225 222 218 216 215 213 214 214 212 211 211
239 239 243 244 246 244 243 234 225 227 229 220 202 199 220 235 295 302 301 258 228 226 241 258 264 245 224 199 191 209 220 225 226 225 221 217 215 214 214 215 215 214 213
238 237 239 239 240 241 243 241 232 225 227 228 224 217 235 265 272 297 302 316 347 333 308 304 304 303 266 224 211 195 209 225 230 230 229 224 219 217 217 217 218 218 216
241 238 233 234 238 240 241 240 238 219 214 216 221 234 240 250 242 250 276 299 326 313 293 277 278 306 316 299 324 22 212 223 226 228 229 230 229 225 222 221 223 223 222
246 232 224 226 232 232 234 233 222 200 185 207 237 250 255 249 241 236 257 284 289 283 283 283 274 329 3 51 61 42 14 252 244 244 240 238 239 238 234 230 229 230 228
257 233 220 214 215 213 210 197 193 181 177 200 228 252 260 257 258 245 243 263 277 284 291 271 152 62 54 67 74 35 345 239 242 246 246 244 242 244 245 246 245 245 242
266 246 223 214 209 205 201 190 188 192 192 206 229 232 239 247 250 240 243 280 298 302 309 335 79 84 53 59 69 353 359 196 223 226 231 236 241 246 251 254 257 261 262
288 262 224 212 207 201 198 186 197 204 196 198 212 218 217 219 231 260 286 286 318 345 7 28 25 49 30 44 72 312 306 198 208 219 226 235 244 253 259 262 261 260 258
352 354 273 191 181 179 178 179 195 193 173 177 186 174 151 130 90 266 252 226 106 39 11 24 27 20 17 357 17 323 303 204 217 228 236 241 247 256 264 268 268 265 261
18 23 20 47 119 155 170 175 175 164 155 153 147 124 102 66 40 25 2 24 43 47 24 32 41 29 26 355 338 325 301 243 222 220 230 238 248 261 273 278 278 276 273
14 12 9 352 312 140 145 130 123 119 113 103 93 88 84 73 58 34 7 26 35 50 50 50 31 25 27 356 349 340 343 341 316 220 220 235 254 273 283 287 287 288 285
5 359 350 344 20 63 76 82 82 84 83 82 80 74 65 55 40 16 33 30 27 24 36 76 74 43 30 6 3 359 14 4 351 356 220 233 261 289 295 296 297 298 296
348 347 352 16 47 62 69 76 77 76 76 72 68 65 62 56 37 19 46 28 20 15 29 46 53 43 24 4 7 356 14 17 15 10 8 15 350 326 318 313 311 311 311
355 25 59 55 56 54 57 73 90 90 86 88 87 83 75 71 61 53 60 41 35 34 29 35 43 39 20 6 2 346 358 354 42 21 5 10 358 358 351 347 347 343 332
155 137 109 81 70 62 47 53 77 83 84 83 88 101 92 60 56 71 79 66 57 52 33 33 38 29 20 3 347 340 343 351 5 13 359 2 358 5 8 9 5 4 356
132 103 92 87 80 56 49 47 60 80 74 67 58 52 60 43 27 7 72 124 78 64 57 59 41 14 12 355 345 341 350 11 8 346 334 354 358 5 11 17 13 22 23
106 98 99 98 93 67 48 40 40 87 85 78 70 71 66 42 21 6 27 33 36 39 33 45 29 350 358 341 338 338 350 22 37 17 351 349 356 353 349 9 16 25 37
128 123 116 112 102 79 51 40 25 78 91 79 67 59 67 51 22 19 28 24 17 7 348 299 283 297 314 329 343 358 3 10 6 19 6 354 338 316 343 2 12 28 40
156 145 131 129 128 114 67 48 25 356 117 116 107 85 67 61 38 26 22 21 12 344 331 326 321 327 19 48 46 40 17 6 4 6 359 349 346 341 336 343 359 5 29